Regional Weather Roundup
Issued by NWS

Home | Current Version | Previous Version | Graphics & Text | Print | Product List | Glossary On
Versions: 1 2 3 4 5 6 7 8 9 10 11 12 13 14 15 16 17 18 19 20 21 22 23 24 25 26 27 28 29 30 31 32 33 34 35 36 37 38 39 40 41 42 43 44 45 46 47 48 49 50
000
ASUS43 KOAX 010010
RWRNE

WEATHER ROUNDUP FOR NEBRASKA
NATIONAL WEATHER SERVICE OMAHA NE
700 PM CDT WED AUG 31 2016

NOTES: SATELLITE DATA IS BEING USED TO AUGMENT CLOUD COVER ABOVE
       12000 FEET.
       "FAIR" INDICATES FEW OR NO CLOUDS BELOW 12,000 FEET WITH NO
       SIGNIFICANT WEATHER AND/OR OBSTRUCTIONS TO VISIBILITY.

  * THESE STATIONS DO NOT REPORT WEATHER SUCH AS RAIN...SNOW OR FOG.

NEZ001>004-019>022-054>056-010100-
NEBRASKA PANHANDLE

CITY           SKY/WX    TMP DP  RH WIND       PRES   REMARKS
SCOTTSBLUFF    SUNNY     78  58  49 SE16      30.18S
6HR MIN TEMP:  75; 6HR MAX TEMP:  82;

ALLIANCE       SUNNY     78  54  43 SE14      30.19F
6HR MIN TEMP:  73; 6HR MAX TEMP:  81;

CHADRON        SUNNY     82  51  34 SE15      30.14S
6HR MIN TEMP:  78; 6HR MAX TEMP:  84;

KIMBALL        CLOUDY    73  58  59 E17       30.24R
SIDNEY         SUNNY     74  60  61 SE15      30.23R
6HR MIN TEMP:  67; 6HR MAX TEMP:  79; 6HR PCP: TRACE;

$$

NEZ057>060-069>072-079>082-010100-
SOUTHWEST NEBRASKA

CITY           SKY/WX    TMP DP  RH WIND       PRES   REMARKS
NORTH PLATTE   SUNNY     78  60  53 SE9       30.19S
6HR MIN TEMP:  78; 6HR MAX TEMP:  83;

IMPERIAL       CLOUDY    73  63  70 SE14      30.20S
6HR MIN TEMP:  69; 6HR MAX TEMP:  75; 6HR PCP: TRACE;

LEXINGTON      SUNNY     78  61  55 SE7       30.18S
MCCOOK         MOSUNNY   76  64  66 E13       30.18R
6HR MIN TEMP:  74; 6HR MAX TEMP:  78;

OGALLALA       SUNNY     73  62  69 SE9       30.20S
$$

NEZ005>010-023>029-035>040-094-010100-
NORTH CENTRAL NEBRASKA

CITY           SKY/WX    TMP DP  RH WIND       PRES   REMARKS
VALENTINE      MOSUNNY   82  54  37 S12       30.17F
6HR MIN TEMP:  78; 6HR MAX TEMP:  84;

AINSWORTH      SUNNY     79  59  49 SE8       30.18F
BROKEN BOW     MOSUNNY   77  61  57 E8        30.18F
6HR MIN TEMP:  73; 6HR MAX TEMP:  81;

O`NEILL        MOSUNNY   80  55  42 SE9       30.19S
ORD            SUNNY     79  55  43 E8        30.17S
6HR MIN TEMP:  77; 6HR MAX TEMP:  83;

THEDFORD       MOSUNNY   81  56  42 SE9       30.20S
$$

NEZ041-046>049-061>064-073>077-083>087-010100-
SOUTH CENTRAL NEBRASKA

CITY           SKY/WX    TMP DP  RH WIND       PRES   REMARKS
GRAND ISLAND   SUNNY     78  56  46 E8        30.17F
6HR MIN TEMP:  75; 6HR MAX TEMP:  83;

AURORA         SUNNY     76  61  59 NE3       30.17S
HASTINGS       SUNNY     76  55  48 E8        30.18R
6HR MIN TEMP:  74; 6HR MAX TEMP:  81;

HEBRON         SUNNY     77  61  57 E6        30.14S
HOLDREGE       SUNNY     76  62  60 E6        30.17S
KEARNEY *      SUNNY     79  63  57 NE8       30.16S
YORK           SUNNY     75  59  57 NE7       30.17R
$$

NEZ011>018-030>034-042>045-010100-
NORTHEAST NEBRASKA

CITY           SKY/WX    TMP DP  RH WIND       PRES   REMARKS
NORFOLK        SUNNY     76  58  53 E6        30.17S
6HR MIN TEMP:  76; 6HR MAX TEMP:  82;

ALBION         SUNNY     76  58  52 E6        30.18S
BLAIR          CLEAR     75  61  61 NE5       30.15F
FREMONT        SUNNY     76  59  55 NE5       30.16S
TEKAMAH        SUNNY     77  63  61 NE3       30.15S
6HR MIN TEMP:  77; 6HR MAX TEMP:  82;

WAYNE          SUNNY     76  66  72 E3        30.17F
$$

NEZ050>053-065>068-078-088>093-010100-
SOUTHEAST NEBRASKA

CITY           SKY/WX    TMP DP  RH WIND       PRES   REMARKS
LINCOLN        SUNNY     78  61  55 NE10      30.14F
6HR MIN TEMP:  78; 6HR MAX TEMP:  83;

OMAHA EPPLEY   PTCLDY    78  60  53 NE7       30.13F
6HR MIN TEMP:  78; 6HR MAX TEMP:  83;

BEATRICE       SUNNY     77  59  54 NE6       30.14R
FALLS CITY     MOCLDY    79  65  62 NE5       30.11R
6HR MIN TEMP:  76; 6HR MAX TEMP:  81;

NEBRASKA CITY  CLOUDY    74  59  59 NE6       30.13S
PLATTSMOUTH    PTCLDY    75  62  63 NE5       30.13F
$$

NEZ044-045-051>053-067-010100-
OMAHA AREA

CITY           SKY/WX    TMP DP  RH WIND       PRES   REMARKS
OMAHA EPPLEY   PTCLDY    78  60  53 NE7       30.13F
6HR MIN TEMP:  78; 6HR MAX TEMP:  83;

BLAIR          CLEAR     75  61  61 NE5       30.15F
FREMONT        SUNNY     76  59  55 NE5       30.16S
MILLARD        CLEAR    N/A N/A N/A NE6       30.13F
OFFUTT AFB     CLEAR     77  62  59 NE6       30.12F
PLATTSMOUTH    PTCLDY    75  62  63 NE5       30.13F
WAHOO          FAIR      74  63  69 NE6       30.14F
$$




USA.gov is the U.S. government's official web portal to all federal, state and local government web resources and services.